Location: Arnolds Mill
(42.3415°N, 73.5951°W)
Time: 06:08:56
(UTC+00:00)

Oscar 11 - Pass Details

Date: 14 May 2026
Orbit: 591 x 601 km, 97.8° (Epoch: 11 June)

Event Time Altitude Azimuth Distance (km) Brightness Sun altitude
Rises 08:18:08 0° 15° (NNE) 2,860 11.5 -12.5°
Reaches altitude 10° 08:20:20 10° 18° (NNE) 1,952 10.6 -12.2°
Maximum altitude 08:24:33 67° 101° (E) 652 7.3 -11.6°
Drops below altitude 10° 08:28:44 10° 185° (S) 1,933 9.2 -11.0°
Enters shadow 08:29:37 - 186° (S) 2,299 9.6 -10.9°
